#timestamp,LO_Frequency,Hit 
1502107215.7,286047000.7,N
1502107235.6,286047002.6,N
1502107255.4,286047001.8,N
1502107275.2,286047002.1,N
1502107295.1,286047002.1,N
1502107296.0,286047002.1,N
1502107315.8,286047000.0,N
1502107335.6,286046995.7,N
1502107355.5,286046998.0,N
1502107375.3,286046997.4,N
1502107395.1,286046995.4,N
1502107415.9,286046997.6,N
1502107435.7,286046999.9,N
1502107455.5,286047000.9,N
1502107475.4,286047002.6,N
1502107495.2,286046999.2,N
1502107515.0,286047000.0,N
1502107515.9,286047000.0,N
1502107535.8,286046998.6,N
1502107555.6,286046999.5,N
1502107575.4,286046997.3,N
1502107595.2,286046997.3,N
1502107615.1,286046997.1,N
1502107616.0,286046997.1,N
1502107635.8,286046997.5,N
1502107655.6,286046995.1,N
1502107675.5,286046993.6,N
1502107695.3,286046992.6,P
1502107715.2,286046993.1,N
1502107735.9,286046988.6,P
1502107755.7,286046988.1,P
1502107775.6,286046996.0,N
1502107795.4,286046998.0,N
1502107815.2,286046995.9,N
1502107835.1,286046999.4,N
1502107836.0,286046999.4,N
1502107855.8,286046998.4,N
1502107875.6,286046998.8,N
1502107895.5,286046998.5,N
1502107915.3,286046997.4,N
1502107935.1,286046997.6,N
1502107955.9,286046995.7,N
1502107975.7,286046994.4,N
1502107995.5,286046991.9,N
1502108015.3,286046991.4,N
1502108035.2,286046987.4,P
1502108055.0,286046990.5,N
1502108055.9,286046990.5,N
1502108075.8,286046994.3,N
1502108095.6,286046999.2,N
1502108115.4,286047003.7,N
1502108135.3,286047007.3,N
1502108155.1,286047007.0,N
1502108156.0,286047007.0,N
1502108175.8,286047010.0,N
1502108195.6,286047013.7,N
1502108215.5,286047015.9,N
1502108235.3,286047018.9,N
1502108255.1,286047025.0,N
1502108275.9,286047023.0,N
1502108295.7,286047020.9,N
1502108315.5,286047025.2,N
1502108335.4,286047024.6,N
1502108355.2,286047022.5,N
1502108375.0,286047021.3,N
1502108375.9,286047021.3,N
1502108395.8,286047020.3,N
1502108415.6,286047023.2,N
1502108435.4,286047024.5,N
1502108455.3,286047024.1,N
1502108475.1,286047031.3,N
1502108476.0,286047031.3,N
1502108495.8,286047031.2,N
1502108515.7,286047028.7,N
1502108535.5,286047025.6,N
1502108555.3,286047026.0,N
1502108575.2,286047026.6,N
1502108595.9,286047027.9,N
1502108615.7,286047025.7,N
1502108635.6,286047027.9,P
1502108655.4,286047007.4,N
1502108675.2,286047007.5,N
1502108695.1,286047009.1,N
1502108696.0,286047009.1,N
1502108715.8,286047006.9,N
1502108735.6,286047005.6,N
1502108755.4,286047005.6,N
1502108775.3,286047003.5,N
1502108795.1,286047001.7,N
1502108815.8,286047002.0,N
1502108835.7,286047000.6,N
1502108855.5,286046997.0,N
1502108875.3,286046999.2,N
1502108895.2,286046997.0,N
1502108915.9,286046999.1,N
1502108935.7,286046998.0,N
1502108955.6,286046995.5,N
1502108975.4,286046996.3,N
1502108995.2,286046994.4,N
1502109015.1,286046991.9,N
1502109016.0,286046991.9,N
1502109035.8,286046992.0,N
1502109055.6,286046991.8,N
1502109075.5,286046990.3,N
1502109095.3,286046987.8,N
1502109115.1,286046988.3,N
1502109135.8,286046985.4,N
1502109155.7,286046985.7,N
1502109175.5,286046986.7,N
1502109195.3,286046985.7,N
1502109215.2,286046986.8,N
1502109235.9,286046988.2,N
1502109255.7,286046989.4,N
1502109275.6,286046991.5,N
1502109295.4,286046992.6,N
1502109315.2,286046993.9,N
1502109335.1,286046997.0,N
1502109336.0,286046997.0,N
1502109355.8,286046998.9,N
1502109375.6,286047002.4,N
1502109395.5,286047004.5,N
1502109415.3,286047006.3,N
1502109435.1,286047001.6,N
1502109455.9,286047002.2,N
1502109475.7,286047000.8,N
1502109495.5,286046996.6,N
1502109515.4,286046994.7,N
1502109535.2,286046987.0,N
1502109555.0,286046984.6,N
1502109555.9,286046984.6,N
1502109575.8,286046982.1,N
1502109595.6,286046983.5,N
1502109615.4,286046980.4,N
1502109635.3,286046975.9,P
1502109655.1,286046984.1,N
1502109656.0,286046984.1,N
1502109675.8,286046982.8,P
1502109695.7,286047000.8,N
1502109715.5,286046999.9,N
1502109735.3,286046997.7,N
1502109755.2,286046995.4,N
1502109775.9,286046993.7,N
1502109795.7,286046994.2,N
1502109815.6,286046993.6,N
1502109835.4,286046993.9,N
1502109855.2,286046993.9,N
1502109875.1,286046994.7,N
1502109876.0,286046994.7,N
1502109895.8,286046991.7,N
1502109915.6,286046990.5,N
1502109935.5,286046990.7,N
1502109955.3,286046992.0,N
1502109975.1,286046994.2,N
1502109995.9,286046993.9,N
1502110015.7,286046997.4,N
1502110035.5,286046996.9,N
1502110055.4,286046996.8,N
1502110075.2,286047000.6,N
1502110095.0,286047000.1,N
1502110095.9,286047000.1,N
1502110115.7,286047004.2,N
1502110135.6,286047004.0,N
1502110155.4,286047004.6,N
1502110175.2,286047008.9,N
1502110195.1,286047008.2,N
1502110196.0,286047008.2,N
1502110215.8,286047008.2,N
1502110235.6,286047010.5,N
1502110255.5,286047011.4,N
1502110275.3,286047015.5,N
1502110295.1,286047013.7,N
1502110315.9,286047012.2,N
1502110335.7,286047011.8,N
1502110355.5,286047011.4,N
1502110375.4,286047009.8,N
1502110395.2,286047008.0,N
1502110415.0,286047006.8,N
1502110415.9,286047006.8,N
1502110435.8,286047006.5,N
1502110455.6,286047008.3,N
1502110475.4,286047010.1,N
1502110495.3,286047011.2,N
1502110515.1,286047010.9,N
1502110516.0,286047010.9,N
1502110535.8,286047018.4,P
1502110555.7,286047013.4,N
1502110575.5,286047013.4,N
1502110595.3,286047015.6,P
1502110615.2,286047000.2,N
1502110635.9,286046998.1,N
1502110655.7,286046999.1,N
1502110675.6,286046996.7,N
1502110695.4,286046998.8,N
1502110715.2,286046998.4,N
1502110735.1,286047001.0,N
1502110736.0,286047001.0,N
1502110755.8,286047001.1,N
1502110775.6,286046999.5,N
1502110795.5,286046997.8,N
